Total_Precipitation_Accumulation
0.22 0.27 0.33 0.41 0.49 0.59 0.72 0.71 0.77 0.93 0.95 0.90 0.82 0.66 0.57 0.57 0.59 0.56 0.54 0.47 0.40 0.34 0.26 0.23 0.22 0.20 0.18 0.17 0.15 0.14 0.12 0.10 0.10 0.09 0.06 0.04 0.03 0.03 0.02 0.02 0.02 0.02 0.02
0.14 0.17 0.24 0.32 0.40 0.48 0.53 0.59 0.62 0.75 0.84 0.80 0.79 0.83 0.82 0.78 0.77 0.70 0.60 0.53 0.51 0.49 0.43 0.37 0.33 0.29 0.26 0.23 0.21 0.21 0.19 0.18 0.18 0.18 0.19 0.12 0.05 0.03 0.03 0.03 0.03 0.03 0.03
0.08 0.11 0.13 0.21 0.29 0.35 0.42 0.45 0.48 0.53 0.63 0.77 0.87 0.92 0.91 0.80 0.67 0.57 0.53 0.57 0.63 0.63 0.55 0.50 0.50 0.47 0.43 0.37 0.36 0.35 0.31 0.28 0.27 0.28 0.31 0.24 0.12 0.07 0.05 0.04 0.05 0.06 0.05
0.04 0.06 0.08 0.11 0.16 0.21 0.30 0.38 0.43 0.48 0.54 0.69 0.70 0.65 0.60 0.58 0.55 0.57 0.62 0.67 0.67 0.67 0.66 0.64 0.61 0.59 0.57 0.52 0.52 0.55 0.51 0.44 0.34 0.30 0.28 0.30 0.27 0.25 0.16 0.07 0.06 0.07 0.06
0.02 0.03 0.05 0.07 0.09 0.13 0.20 0.28 0.36 0.40 0.47 0.55 0.58 0.61 0.61 0.63 0.67 0.67 0.65 0.63 0.61 0.63 0.66 0.68 0.65 0.58 0.56 0.57 0.58 0.57 0.56 0.51 0.45 0.41 0.40 0.40 0.35 0.32 0.31 0.19 0.09 0.09 0.09
0.01 0.02 0.02 0.04 0.05 0.08 0.12 0.19 0.28 0.35 0.43 0.51 0.55 0.56 0.54 0.56 0.58 0.58 0.59 0.61 0.60 0.57 0.57 0.60 0.60 0.60 0.60 0.61 0.63 0.64 0.63 0.62 0.61 0.56 0.51 0.50 0.46 0.39 0.43 0.40 0.27 0.23 0.20
0.01 0.01 0.01 0.02 0.02 0.05 0.07 0.10 0.15 0.22 0.30 0.37 0.40 0.44 0.51 0.54 0.53 0.52 0.53 0.54 0.50 0.47 0.50 0.56 0.59 0.61 0.63 0.68 0.70 0.68 0.63 0.65 0.64 0.62 0.58 0.56 0.52 0.50 0.55 0.60 0.52 0.44 0.37
0.00 0.01 0.01 0.01 0.01 0.02 0.04 0.06 0.10 0.13 0.18 0.23 0.28 0.33 0.38 0.41 0.42 0.43 0.43 0.42 0.40 0.42 0.48 0.51 0.52 0.54 0.58 0.61 0.63 0.61 0.59 0.59 0.59 0.59 0.57 0.53 0.49 0.48 0.51 0.59 0.69 0.68 0.56
0.00 0.00 0.01 0.00 0.00 0.01 0.02 0.03 0.05 0.08 0.13 0.16 0.20 0.24 0.28 0.32 0.34 0.37 0.39 0.39 0.38 0.39 0.40 0.42 0.43 0.43 0.43 0.44 0.47 0.49 0.48 0.47 0.47 0.46 0.46 0.44 0.41 0.40 0.41 0.47 0.61 0.78 0.76
0.00 0.00 0.01 0.00 0.00 0.00 0.01 0.02 0.04 0.06 0.08 0.11 0.14 0.17 0.22 0.26 0.29 0.32 0.32 0.33 0.32 0.32 0.31 0.31 0.32 0.33 0.33 0.33 0.34 0.34 0.35 0.35 0.34 0.33 0.34 0.34 0.34 0.35 0.38 0.43 0.50 0.63 0.73
0.01 0.01 0.01 0.00 0.00 0.00 0.01 0.02 0.03 0.04 0.05 0.07 0.09 0.13 0.17 0.19 0.21 0.24 0.26 0.26 0.26 0.25 0.25 0.26 0.26 0.25 0.24 0.24 0.25 0.26 0.26 0.27 0.26 0.25 0.25 0.27 0.28 0.31 0.33 0.36 0.41 0.47 0.54
0.01 0.01 0.01 0.01 0.01 0.01 0.01 0.02 0.03 0.04 0.05 0.05 0.07 0.10 0.12 0.13 0.15 0.19 0.19 0.20 0.22 0.22 0.20 0.19 0.19 0.19 0.18 0.17 0.18 0.19 0.20 0.21 0.22 0.23 0.24 0.26 0.27 0.30 0.33 0.34 0.35 0.36 0.37
0.02 0.02 0.02 0.02 0.02 0.02 0.03 0.03 0.04 0.04 0.05 0.05 0.06 0.08 0.10 0.10 0.11 0.14 0.15 0.16 0.19 0.22 0.22 0.19 0.16 0.15 0.15 0.14 0.14 0.15 0.16 0.18 0.20 0.23 0.26 0.28 0.29 0.31 0.31 0.30 0.28 0.27 0.25
0.04 0.03 0.03 0.03 0.03 0.03 0.02 0.03 0.03 0.04 0.05 0.06 0.07 0.07 0.09 0.10 0.11 0.12 0.12 0.14 0.14 0.16 0.17 0.18 0.16 0.15 0.15 0.15 0.15 0.17 0.19 0.22 0.25 0.27 0.29 0.31 0.31 0.30 0.27 0.23 0.21 0.20 0.19
0.06 0.05 0.05 0.05 0.04 0.03 0.03 0.02 0.03 0.04 0.05 0.06 0.08 0.08 0.09 0.09 0.10 0.10 0.10 0.11 0.12 0.13 0.13 0.14 0.15 0.15 0.17 0.19 0.23 0.25 0.29 0.33 0.34 0.34 0.32 0.29 0.26 0.22 0.18 0.17 0.16 0.15 0.17
0.07 0.06 0.05 0.05 0.04 0.05 0.05 0.05 0.05 0.04 0.05 0.07 0.08 0.08 0.08 0.09 0.09 0.10 0.11 0.12 0.13 0.15 0.16 0.19 0.23 0.28 0.32 0.40 0.39 0.35 0.34 0.33 0.30 0.27 0.23 0.21 0.19 0.16 0.15 0.14 0.14 0.19 0.26
0.05 0.04 0.04 0.04 0.04 0.04 0.04 0.04 0.04 0.05 0.06 0.07 0.09 0.09 0.09 0.09 0.09 0.12 0.17 0.21 0.23 0.25 0.29 0.33 0.38 0.41 0.43 0.41 0.33 0.28 0.24 0.24 0.23 0.19 0.15 0.11 0.09 0.08 0.06 0.06 0.12 0.17 0.22
0.04 0.03 0.02 0.03 0.03 0.03 0.03 0.02 0.03 0.05 0.07 0.08 0.12 0.14 0.14 0.18 0.21 0.22 0.26 0.33 0.37 0.39 0.42 0.44 0.45 0.45 0.42 0.37 0.27 0.21 0.17 0.14 0.12 0.09 0.07 0.05 0.04 0.04 0.07 0.14 0.18 0.12 0.08
0.06 0.05 0.05 0.04 0.04 0.03 0.04 0.04 0.05 0.06 0.07 0.09 0.13 0.16 0.19 0.25 0.31 0.32 0.35 0.40 0.45 0.49 0.47 0.44 0.40 0.33 0.28 0.23 0.17 0.13 0.08 0.06 0.05 0.04 0.04 0.06 0.05 0.07 0.19 0.27 0.23 0.10 0.03
0.08 0.08 0.09 0.09 0.10 0.10 0.11 0.12 0.12 0.16 0.19 0.19 0.23 0.27 0.32 0.38 0.42 0.41 0.41 0.40 0.38 0.38 0.34 0.29 0.24 0.19 0.15 0.12 0.09 0.07 0.04 0.03 0.03 0.03 0.03 0.04 0.06 0.14 0.27 0.25 0.19 0.10 0.06
0.13 0.13 0.13 0.15 0.17 0.16 0.17 0.19 0.20 0.27 0.32 0.35 0.36 0.37 0.39 0.40 0.41 0.38 0.36 0.32 0.26 0.22 0.18 0.14 0.11 0.08 0.06 0.05 0.04 0.04 0.04 0.06 0.08 0.07 0.03 0.02 0.11 0.21 0.23 0.16 0.08 0.09 0.16
0.12 0.14 0.16 0.17 0.20 0.23 0.26 0.27 0.30 0.34 0.34 0.34 0.34 0.34 0.32 0.30 0.30 0.28 0.25 0.22 0.18 0.13 0.10 0.08 0.07 0.06 0.05 0.04 0.04 0.05 0.08 0.12 0.12 0.07 0.05 0.07 0.17 0.16 0.09 0.04 0.05 0.11 0.10
0.11 0.14 0.17 0.20 0.22 0.24 0.27 0.29 0.29 0.28 0.28 0.27 0.25 0.23 0.20 0.19 0.17 0.15 0.14 0.13 0.11 0.09 0.08 0.06 0.05 0.04 0.04 0.03 0.04 0.05 0.10 0.14 0.11 0.09 0.13 0.15 0.10 0.04 0.01 0.01 0.04 0.04 0.02
0.08 0.10 0.12 0.14 0.15 0.15 0.17 0.19 0.18 0.17 0.17 0.16 0.16 0.14 0.12 0.10 0.09 0.09 0.09 0.08 0.07 0.06 0.06 0.05 0.05 0.04 0.04 0.03 0.04 0.07 0.09 0.11 0.12 0.14 0.14 0.07 0.02 0.01 0.01 0.01 0.01 0.01 0.03
0.07 0.08 0.08 0.09 0.10 0.10 0.10 0.10 0.09 0.09 0.10 0.10 0.11 0.10 0.10 0.09 0.09 0.09 0.09 0.09 0.09 0.09 0.08 0.07 0.06 0.06 0.05 0.06 0.13 0.15 0.13 0.16 0.18 0.16 0.06 0.01 0.01 0.01 0.01 0.01 0.01 0.01 0.02
0.07 0.07 0.07 0.09 0.11 0.11 0.09 0.09 0.07 0.07 0.09 0.10 0.10 0.10 0.10 0.10 0.10 0.10 0.10 0.11 0.11 0.11 0.10 0.09 0.09 0.07 0.08 0.11 0.14 0.15 0.18 0.20 0.15 0.08 0.02 0.03 0.03 0.03 0.03 0.03 0.03 0.03 0.05